Погода в Кундуре

Россия / Амурская область     49°06′13″N   130°45′31″E
темп.,
°C
ветер,
м/с
пор.,
м/с
влажн.,
%
обл.,
%
осадки,
мм/ч
давл.,
гПа
погр.,
м
8 августа, пн
пн800:00+19ююв41097100 8.2 996510
03:00+18зюз24100100 8.9 996253
06:00+17зсз389953 0.6 997560
09:00+19з36701 0.6 999779
12:00+23з58400 0.0 9971945
15:00+25зсз610335 0.0 9972689
18:00+21сз38549 0.0 998948
21:00+14ю127777 0.1 99823
9 августа, вт
вт900:00+12юв239358 0.2 99856
03:00+11юв22965 0.4 99737
06:00+11ююв129575 0.0 99734
09:00+18юз36585 0.0 996856
12:00+23з5124199 0.0 9942375
15:00+19зсз3860100 0.0 995973
18:00+18зюз2765100 0.1 995433
21:00+16зсз3867100 0.2 996530
10 августа, ср
ср1000:00+13юв2185100 0.1 99520
03:00+14юв1178100 0.1 99433
06:00+13зюз2485100 0.0 995149
09:00+14зюз2787100 0.1 996744
12:00+13зюз3792100 0.4 997556
15:00+13юз4897100 1.4 997532
18:00+12зюз2799100 0.9 998452
21:00+12юз259954 1.0 1000260
11 августа, чт
чт1100:00+10ю119946 0.0 100033
03:00+9ю1199100 0.0 100113
06:00+10юз0198100 0.0 100267
09:00+14з1290100 0.0 1002407
12:00+19сз136543 0.1 10011056
15:00+21зсз335913 0.4 10001412
18:00+19юз24815 0.8 1000184
21:00+14юв1195100 0.8 100111
12 августа, пт
пт1200:00+13всв119797 1.6 100212
03:00+13юз1198100 1.6 100212
06:00+13юз009897 0.0 100317
09:00+17з128451 0.0 1003553
12:00+22з33568 0.3 10031432
15:00+21зсз236925 2.1 10031074
18:00+20сз12784 0.5 1003110
21:00+14в11925 0.6 100411